Location: Pcim
(49.7500°N, 19.9670°E)
Time: 19:13:18
(UTC+02:00)

Oscar 11 - Pass Details

Date: 23 April 2024
Orbit: 602 x 615 km, 97.7° (Epoch: 26 May)

Event Time Altitude Azimuth Distance (km) Brightness Sun altitude
Rises 03:15:16 0° 31° (NNE) 2,894 12.1 -18.8°
Reaches altitude 10° 03:18:40 10° 60° (ENE) 1,979 10.7 -18.4°
Maximum altitude 03:20:38 13° 87° (E) 1,792 10.0 -18.2°
Drops below altitude 10° 03:22:34 10° 114° (ESE) 1,968 9.8 -18.0°
Sets 03:25:56 0° 143° (SE) 2,862 10.4 -17.6°
